TimeCST,TemperatureF,Dew PointF,Humidity,Sea Level PressureIn,VisibilityMPH,Wind Direction,Wind SpeedMPH,Gust SpeedMPH,PrecipitationIn,Events,Conditions,WindDirDegrees,DateUTC
12:54 AM,35.1,24.1,64,30.20,7.0,North,10.4,-,N/A,,Overcast,10,2012-11-26 06:54:00
1:54 AM,35.1,24.1,64,30.20,8.0,North,9.2,-,N/A,,Overcast,10,2012-11-26 07:54:00
2:54 AM,34.0,24.1,67,30.22,8.0,North,9.2,-,N/A,,Overcast,10,2012-11-26 08:54:00
3:54 AM,34.0,24.1,67,30.23,8.0,North,8.1,-,N/A,,Overcast,10,2012-11-26 09:54:00
4:54 AM,33.1,24.1,70,30.25,8.0,North,16.1,-,N/A,,Overcast,360,2012-11-26 10:54:00
5:54 AM,33.1,24.1,70,30.28,8.0,North,11.5,-,N/A,,Overcast,350,2012-11-26 11:54:00
6:54 AM,32.0,23.0,69,30.32,6.0,North,11.5,-,N/A,,Haze,360,2012-11-26 12:54:00
7:54 AM,30.9,21.0,67,30.37,8.0,North,13.8,-,N/A,,Overcast,350,2012-11-26 13:54:00
8:54 AM,28.9,19.9,69,30.40,7.0,North,18.4,-,N/A,,Overcast,360,2012-11-26 14:54:00
9:54 AM,27.0,14.0,58,30.45,10.0,North,16.1,-,N/A,,Overcast,360,2012-11-26 15:54:00
10:19 AM,26.6,14.0,59,30.44,9.0,North,20.7,-,N/A,,Overcast,350,2012-11-26 16:19:00
10:54 AM,27.0,14.0,58,30.48,9.0,North,17.3,-,N/A,,Overcast,10,2012-11-26 16:54:00
11:27 AM,28.4,14.0,55,30.45,9.0,North,16.1,-,N/A,,Mostly Cloudy,10,2012-11-26 17:27:00
11:54 AM,28.0,14.0,56,30.48,8.0,North,16.1,-,N/A,,Scattered Clouds,10,2012-11-26 17:54:00
12:54 PM,28.9,14.0,54,30.47,6.0,North,12.7,20.7,N/A,,Haze,360,2012-11-26 18:54:00
1:54 PM,30.0,14.0,51,30.45,7.0,NNW,9.2,-,N/A,,Clear,330,2012-11-26 19:54:00
2:54 PM,32.0,15.1,50,30.44,7.0,North,10.4,-,N/A,,Clear,360,2012-11-26 20:54:00
3:54 PM,30.0,14.0,51,30.45,7.0,North,11.5,-,N/A,,Clear,10,2012-11-26 21:54:00
4:54 PM,27.0,12.9,56,30.45,6.0,North,5.8,-,N/A,,Haze,350,2012-11-26 22:54:00
5:54 PM,21.0,10.9,65,30.47,8.0,North,5.8,-,N/A,,Clear,350,2012-11-26 23:54:00
6:54 PM,19.0,12.0,74,30.48,7.0,NW,3.5,-,N/A,,Clear,320,2012-11-27 00:54:00
7:54 PM,14.0,7.0,74,30.49,7.0,Calm,Calm,-,N/A,,Clear,0,2012-11-27 01:54:00
8:54 PM,16.0,8.1,71,30.49,7.0,Calm,Calm,-,N/A,,Clear,0,2012-11-27 02:54:00
9:54 PM,12.0,6.1,77,30.49,6.0,Calm,Calm,-,N/A,,Haze,0,2012-11-27 03:54:00
10:54 PM,12.0,5.0,73,30.48,6.0,South,5.8,-,N/A,,Haze,190,2012-11-27 04:54:00
11:54 PM,10.0,3.9,76,30.48,5.0,SW,4.6,-,N/A,,Haze,220,2012-11-27 05:54:00